Weather History for Telfer, WE

Change the Weather History Date:

Sunday, December 30, 2012

  Actual Average Record
Temperature  
Mean Temperature 97 °F -  
Max Temperature 109 °F - - ()
Min Temperature 85 °F - - ()
Cooling Degree Days 32    
Growing Degree Days 47 (Base 50)    
Moisture  
Dew Point 48 °F    
Average Humidity 20    
Maximum Humidity 43    
Minimum Humidity 4    
Precipitation  
Precipitation 0.00 in - - ()
Sea Level Pressure  
Sea Level Pressure 29.72 in    
Wind  
Wind Speed 10 mph ()    
Max Wind Speed 25 mph    
Max Gust Speed 36 mph    
T = Trace of Precipitation, MM = Missing Value Source: Averaged Metar Reports

Daily Weather History Graph

Daily Weather History Graph

Search for Another Location

Airport:

Trip Planner

Search our weather history database for the weather conditions in past years. The results will help you decide how hot, cold, wet, or windy it might be!

Date:

Astronomy

Dec. 30, 2012 Rise Set
Actual Time 5:10 AM AWST 6:36 PM AWST
Civil Twilight 4:45 AM AWST 7:01 PM AWST
Nautical Twilight 4:15 AM AWST 7:31 PM AWST
Astronomical Twilight 3:44 AM AWST 8:02 PM AWST
Moon 7:51 PM AWST (12/30) 6:33 AM AWST (12/30)
Length of Visible Light 14h 16m
Length of Day
13h 26m
Full, 97% of the Moon is Illuminated
Dec 30
Full
Jan 5
Last Quarter
Jan 12
New
Jan 19
First Quarter
Jan 27
Full

Hourly Weather History & Observations

Time (AWST) Temp. Heat Index Dew Point Humidity Pressure Visibility Wind Dir Wind Speed Gust Speed Precip Events Conditions
12:00 AM 87 °F - 60 °F 30% 29.75 in - WNW 11.5 mph - -  
12:00 AM 87.8 °F 87.1 °F 59.0 °F 38% 29.80 in - WNW 11.5 mph - N/A   Unknown
1:00 AM 87.8 °F 87.1 °F 59.0 °F 38% 29.77 in - SW 12.7 mph - N/A   Unknown
2:00 AM 86 °F - 59 °F 30% 29.70 in - WNW 6.9 mph - -  
2:00 AM 86.0 °F 85.4 °F 59.0 °F 40% 29.77 in - WNW 6.9 mph - N/A   Unknown
3:00 AM 86 °F - 60 °F 31% 29.70 in - SW 11.5 mph - -  
3:00 AM 86.0 °F 85.4 °F 59.0 °F 40% 29.77 in - SW 11.5 mph - N/A   Unknown
4:00 AM 86.0 °F 86.1 °F 60.8 °F 43% 29.74 in - SW 10.4 mph - N/A   Unknown
5:00 AM 86 °F - 60 °F 31% 29.69 in - SW 13.8 mph - -  
5:00 AM 86.0 °F 85.4 °F 59.0 °F 40% 29.74 in - SW 13.8 mph - N/A   Unknown
6:00 AM 88 °F - 59 °F 27% 29.71 in - South 12.7 mph - -  
6:00 AM 87.8 °F 87.1 °F 59.0 °F 38% 29.77 in - South 12.7 mph - N/A   Unknown
7:00 AM 89.6 °F 88.9 °F 59.0 °F 36% 29.77 in - SSE 13.8 mph - N/A   Unknown
8:00 AM 96 °F - 59 °F 20% 29.72 in - South 12.7 mph - -  
8:00 AM 96.8 °F 96.2 °F 59.0 °F 28% 29.77 in - South 12.7 mph - N/A   Unknown
9:00 AM 99 °F - 55 °F 15% 29.73 in - SSE 12.7 mph - -  
9:00 AM 98.6 °F 97.2 °F 55.4 °F 24% 29.77 in - SSE 12.7 mph - N/A   Unknown
10:00 AM 102.2 °F 100.4 °F 53.6 °F 20% 29.77 in - SE 15.0 mph - N/A   Unknown
11:00 AM 103 °F - 48 °F 9% 29.70 in - SE 10.4 mph - -  
11:00 AM 104.0 °F - 48.2 °F 15% 29.77 in - SE 10.4 mph - N/A   Unknown
12:00 PM 105 °F - 38 °F 5% 29.68 in - ESE 8.1 mph - -  
12:00 PM 105.8 °F - 37.4 °F 10% 29.74 in - ESE 8.1 mph - N/A   Unknown
1:00 PM 105.8 °F - 35.6 °F 9% 29.71 in - NE 8.1 mph - N/A   Unknown
2:00 PM 107 °F - 33 °F 4% 29.65 in - NE 10.4 mph - -  
2:00 PM 107.6 °F - 33.8 °F 8% 29.71 in - NE 10.4 mph - N/A   Unknown
3:00 PM 108 °F - 31 °F 4% 29.64 in - East 10.4 mph - -  
3:00 PM 109.4 °F - 30.2 °F 6% 29.68 in - East 10.4 mph - N/A   Unknown
4:00 PM 105.8 °F - 33.8 °F 8% 29.68 in - NE 10.4 mph - N/A   Unknown
5:00 PM 106 °F - 33 °F 4% 29.62 in - NNE 9.2 mph - -  
5:00 PM 105.8 °F - 32.0 °F 8% 29.68 in - NNE 9.2 mph - N/A   Unknown
6:00 PM 104 °F - 34 °F 4% 29.64 in - NNE 5.8 mph - -  
6:00 PM 104.0 °F - 33.8 °F 9% 29.68 in - NNE 5.8 mph - N/A   Unknown
7:00 PM 100.4 °F - 33.8 °F 10% 29.71 in - Calm Calm - N/A   Unknown
8:00 PM 99 °F - 39 °F 6% 29.66 in - Calm Calm - -  
8:00 PM 98.6 °F - 39.2 °F 13% 29.71 in - Calm Calm - N/A   Unknown
9:00 PM 95.0 °F - 44.6 °F 18% 29.74 in - SSE 6.9 mph - N/A   Unknown
9:51 PM 95.0 °F - 51.8 °F 23% 29.77 in - ESE 21.9 mph - N/A   Unknown
10:00 PM 95.0 °F 92.7 °F 53.6 °F 25% 29.77 in - ESE 25.3 mph - N/A   Unknown
10:08 PM 93.2 °F 90.8 °F 53.6 °F 26% 29.77 in - East 24.2 mph 35.7 mph N/A   Unknown
11:00 PM 91 °F - 54 °F 19% 29.70 in - East 13.8 mph - -  
11:00 PM 91.4 °F 89.1 °F 53.6 °F 28% 29.77 in - East 13.8 mph - N/A   Unknown